Regional Weather Roundup
Issued by NWS Newport/Morehead, NC

Current Version | Previous Version | Graphics & Text | Print | Product List | Glossary Off
Versions: 1 2 3 4 5 6 7 8 9 10 11 12 13 14 15 16 17 18 19 20 21 22 23 24 25 26 27 28 29 30 31 32 33 34 35 36 37 38 39 40 41 42 43 44 45 46 47 48 49 50

000
ASUS42 KMHX 271010
RWRMHX
WEATHER ROUNDUP FOR EASTERN NORTH CAROLINA
NATIONAL WEATHER SERVICE NEWPORT/MOREHEAD CITY NC
500 AM EST SAT DEC 27 2014

NOTE: "FAIR" INDICATES FEW OR NO CLOUDS BELOW 12,000 FEET
WITH NO SIGNIFICANT WEATHER AND/OR OBSTRUCTIONS TO VISIBILITY

NCZ015>017-031-032-045>047-102-103-271100-
NORTH COAST

CITY           SKY/WX    TMP DP  RH WIND       PRES   REMARKS
EDENTON          N/A     34  33  96 CALM      30.28F
ELIZABETH CITY CLEAR     38  34  85 CALM      30.28F
KITTY HAWK     SUNNY     44  42  93 SW3       30.27S
MANTEO         FOG       36  36 100 CALM      30.29S VSB 1

$$

NCZ045>047-081-094-103-104-271100-
CENTRAL COAST

CITY           SKY/WX    TMP DP  RH WIND       PRES   REMARKS
FRISCO         CLEAR     38  38 100 N3        30.29F
SWANQUARTER      N/A     37 N/A N/A CALM      30.24F

$$

NCZ095-097-098-100-101-271100-
SOUTHERN COAST

CITY           SKY/WX    TMP DP  RH WIND       PRES   REMARKS
BEAUFORT       CLEAR     38  36  92 N5        30.28F
CEDAR ISLAND     N/A     45 N/A N/A SW5       30.33S
JACKSONVILLE   CLEAR     34  33  96 W3        30.30S
PINEY ISLAND   SUNNY     48  42  80 W3        30.29F
WILMINGTON     CLEAR     36  34  92 CALM      30.30R


$$

NCZ011>013-027>030-043-044-078>080-089-090>093-098-271100-
COASTAL PLAIN

CITY           SKY/WX    TMP DP  RH WIND       PRES   REMARKS
AHOSKIE        CLEAR     32  31  95 CALM      30.28S
CLINTON        CLEAR     33  33 100 CALM      30.30S FOG
ELIZABETHTOWN  CLEAR     32  32  99 CALM      30.29F
GOLDSBORO      FOG       32  32 100 CALM      30.28S VSB 1
GREENVILLE       N/A     34  34 100 CALM      30.29F FOG
HAVELOCK       CLEAR     33  31  92 CALM      30.30F
KENANSVILLE    CLEAR     31  31 100 CALM      30.30F
KINSTON        CLEAR     32  32 100 CALM      30.30S
NEW BERN         N/A     34  31  88 CALM      30.30F VSB 1/4
RICHLANDS      CLEAR     30  27  86 CALM      30.30S
ROCKY MOUNT    CLEAR     31  30  96 CALM      30.28S
WASHINGTON     CLEAR     34  32  94 CALM      30.29S
WHITEVILLE     CLEAR     34  33  96 CALM      30.29S

$$

AMZ130-135-150-152-154-156-158-170-250-252-270-ANZ085-086-088-633-658-670-271100-
MARINE OBSERVATIONS

STATION/POSITION TIME  TEMP    WIND        PRES    WAVE   SWELL
                       AIR SEA DIR/SP/G            HT/PER HT/PER
                 (UTC) (F)     (DEG/KT/KT) (MB)    (FT/S) (FT/S)
CHESAPEAKE LIGHT 0900   46     220/  9/ 10 1026.1
64 E VA BEACH    1000   51 52  260/  8/ 10 1025.2    2/12   2/12
DUCK             1000   48 51  260/  4/  5 1024.7
2 E DUCK         1000      50                N/A     2/18   2/18
10 NE DUCK       1000      50                N/A     2/12   2/12
OREGON INLET     1000   47 53  250/  2/  3 1025.4
13E OREGON INLT  1000      50                N/A     3/13   2/13
HATTERAS CG      1000   50 57  340/  3/  4 1025.9
DIAMOND BUOY     1000   55                 1025.8    2/ 8
17 S OCRACOKE    NOT AVBL
CAPE LOOKOUT     0900   52     360/  7/  7 1025.5
BEAUFORT LAB     1000   45 55  360/  4/  4 1024.6
30 SE NEW RIVER  1000   58 60  360/  6/  8 1026.0    2/ 7   2/ 7
5 SE WRIGHTSVLE  NOT AVBL
225 S CAPE HAT   0902   68 74   90/  4/  8 1025.1    3/13   3/13
41 SE CHARLESTON 1000   63 73   20/ 12/ 14 1024.2    2/ 7   2/ 7

$$


USA.gov is the U.S. government's official web portal to all federal, state and local government web resources and services.